This is the latest recevied weather packets stored in our database for station/object WB5CFT. If no packets are shown the sender has not sent any weather packets the latest 10 day(s).
| Time | Temp. | Humidity | Pressure | Rain* | Wind** | Luminosity | Snow |
|---|---|---|---|---|---|---|---|
| 1777823082 | 17.22° C | 59% | 1022.9 hPa | 0 mm | - | 100 W/m² | - |
| 1777822780 | 16.67° C | 59% | 1022.8 hPa | 0 mm | - | 234 W/m² | - |
| 1777822478 | 16.67° C | 60% | 1022.9 hPa | 0 mm | - | 106 W/m² | - |
| 1777822175 | 16.67° C | 61% | 1023.2 hPa | 0 mm | - | 104 W/m² | - |
| 1777821872 | 16.67° C | 61% | 1023.4 hPa | 0 mm | - | 100 W/m² | - |
| 1777821570 | 16.11° C | 62% | 1023.4 hPa | 0 mm | - | 109 W/m² | - |
| 1777821267 | 16.11° C | 62% | 1023.1 hPa | 0 mm | - | 116 W/m² | - |
| 1777820964 | 16.67° C | 62% | 1023.4 hPa | 0 mm | - | 128 W/m² | - |
| 1777820661 | 16.11° C | 62% | 1023 hPa | 0 mm | - | 180 W/m² | - |
| 1777820357 | 16.11° C | 64% | 1023 hPa | 0 mm | - | 264 W/m² | - |
| 1777820055 | 16.11° C | 66% | 1022.9 hPa | 0 mm | - | 128 W/m² | - |
| 1777819751 | 15.56° C | 70% | 1023.1 hPa | 0 mm | - | 269 W/m² | - |
| 1777819449 | 15.56° C | 69% | 1023.1 hPa | 0 mm | - | 133 W/m² | - |
| 1777819147 | 15.56° C | 69% | 1023.2 hPa | 0 mm | - | 244 W/m² | - |
| 1777818843 | 15° C | 70% | 1023 hPa | 0 mm | - | 142 W/m² | - |
| 1777818539 | 14.44° C | 70% | 1023.2 hPa | 0 mm | - | 136 W/m² | - |
| 1777818237 | 15° C | 69% | 1023.2 hPa | 0 mm | - | 209 W/m² | - |
| 1777817933 | 15° C | 68% | 1023.1 hPa | 0 mm | - | 193 W/m² | - |
| 1777817631 | 15° C | 68% | 1023.4 hPa | 0 mm | - | 171 W/m² | - |
| 1777817327 | 15° C | 67% | 1023.2 hPa | 0 mm | - | 164 W/m² | - |
| 1777817024 | 15° C | 69% | 1023 hPa | 0 mm | - | 141 W/m² | - |
| 1777816720 | 14.44° C | 72% | 1023 hPa | 0 mm | - | 167 W/m² | - |
| 1777816418 | 14.44° C | 74% | 1023 hPa | 0 mm | - | 173 W/m² | - |
| 1777816116 | 13.89° C | 74% | 1023.1 hPa | 0 mm | - | 162 W/m² | - |
| 1777815813 | 13.89° C | 76% | 1023 hPa | 0 mm | - | 145 W/m² | - |
* Rain latest hour (hover to see other rain measurements)
** Current wind speed in m/s (hover to see current wind gust speed)